Crossville, TN

3:07 AM CST on February 07, 2016 (GMT -0600)
Crossville Memorial-Whitson

Weather History for KCSV - May, 2013

Change the Weather History Date:

Tuesday, May 21, 2013

  Actual Average Record
Temperature  
Mean Temperature 70 °F 65 °F  
Max Temperature 82 °F 75 °F 88 °F (1962)
Min Temperature 60 °F 54 °F 35 °F (1954)
Degree Days  
Heating Degree Days 0    
Month to date heating degree days  
Since 1 July heating degree days  
Cooling Degree Days 6    
Month to date cooling degree days  
Year to date cooling degree days  
Growing Degree Days 20 (Base 50)    
Moisture  
Dew Point 62 °F    
Average Humidity 86    
Maximum Humidity 94    
Minimum Humidity 58    
Precipitation  
Precipitation 0.94 in 0.16 in 1.81 in (2012)
Month to date precipitation 3.67  
Year to date precipitation 22.69  
Sea Level Pressure  
Sea Level Pressure 30.01 in    
Wind  
Wind Speed 4 mph (WNW)    
Max Wind Speed 23 mph    
Max Gust Speed 31 mph    
Visibility 6 miles    
Events Fog , Rain , Thunderstorm    
T = Trace of Precipitation, MM = Missing Value Source: NWS Daily Summary

Daily Weather History Graph

Daily Weather History Graph

Search for Another Location

Airport or City:

Trip Planner

Search our weather history database for the weather conditions in past years. The results will help you decide how hot, cold, wet, or windy it might be!

Date:

Astronomy

May. 21, 2013 Rise Set
Actual Time 5:30 AM CDT 7:44 PM CDT
Civil Twilight 5:01 AM CDT 8:13 PM CDT
Nautical Twilight 4:25 AM CDT 8:48 PM CDT
Astronomical Twilight 3:47 AM CDT 9:27 PM CDT
Moon 4:03 PM CDT (5/21) 2:50 AM CDT (5/21)
Length of Visible Light 15h 11m
Length of Day
14h 13m
Waxing Gibbous, 84% of the Moon is Illuminated
May 21
Waxing Gibbous
May 24
Full
May 31
Last Quarter
Jun 8
New
Jun 16
First Quarter

Hourly Weather History & Observations

Time (CDT) Temp. Heat Index Dew Point Humidity Pressure Visibility Wind Dir Wind Speed Gust Speed Precip Events Conditions
12:53 AM 64.9 °F - 62.1 °F 90% 30.00 in 6.0 mi Variable 3.5 mph - N/A   Clear
1:53 AM 66.0 °F - 63.0 °F 90% 29.99 in 7.0 mi Variable 3.5 mph - 0.01 in   Clear
2:53 AM 64.0 °F - 62.1 °F 93% 29.99 in 5.0 mi Calm Calm - N/A   Clear
3:53 AM 64.9 °F - 62.1 °F 90% 29.99 in 6.0 mi Calm Calm - N/A   Clear
4:24 AM 62.6 °F - 60.8 °F 94% 30.04 in 1.5 mi Calm Calm - N/A   Clear
4:29 AM 62.6 °F - 60.8 °F 94% 30.04 in 0.5 mi Calm Calm - N/A Fog Fog
4:38 AM 62.6 °F - 60.8 °F 94% 30.04 in 0.8 mi Calm Calm - N/A   Mist
4:48 AM 62.6 °F - 60.8 °F 94% 30.05 in 0.5 mi Calm Calm - N/A Fog Fog
4:53 AM 62.1 °F - 60.1 °F 93% 29.99 in 1.0 mi Calm Calm - N/A   Mist
5:09 AM 62.6 °F - 60.8 °F 94% 30.05 in 2.0 mi Calm Calm - N/A   Partly Cloudy
5:17 AM 62.6 °F - 60.8 °F 94% 30.05 in 5.0 mi Calm Calm - N/A   Clear
5:53 AM 64.0 °F - 62.1 °F 93% 30.01 in 5.0 mi Calm Calm - N/A   Clear
6:53 AM 66.9 °F - 63.0 °F 87% 30.02 in 6.0 mi Calm Calm - N/A   Clear
7:53 AM 70.0 °F - 64.9 °F 84% 30.02 in 8.0 mi Calm Calm - N/A   Clear
8:53 AM 73.0 °F - 66.0 °F 79% 30.03 in 10.0 mi Variable 3.5 mph - N/A   Scattered Clouds
9:19 AM 73.4 °F - 66.2 °F 78% 30.09 in 10.0 mi West 5.8 mph - N/A   Overcast
9:40 AM 73.4 °F - 66.2 °F 78% 30.08 in 9.0 mi West 3.5 mph - N/A   Scattered Clouds
9:53 AM 73.9 °F - 64.9 °F 73% 30.02 in 10.0 mi Variable 3.5 mph - N/A   Partly Cloudy
10:53 AM 78.1 °F - 64.9 °F 64% 30.01 in 10.0 mi Variable 4.6 mph - N/A   Partly Cloudy
11:53 AM 79.0 °F - 64.9 °F 62% 29.99 in 10.0 mi Variable 3.5 mph - N/A   Partly Cloudy
12:53 PM 81.0 °F 82.7 °F 64.9 °F 58% 29.97 in 10.0 mi Calm Calm - N/A   Partly Cloudy
1:20 PM 80.6 °F 82.3 °F 64.4 °F 58% 30.02 in 10.0 mi Variable 3.5 mph - N/A Thunderstorm Mostly Cloudy
1:53 PM 78.1 °F - 66.0 °F 66% 29.94 in 10.0 mi Calm Calm - N/A Thunderstorm Thunderstorm
2:08 PM 73.4 °F - 66.2 °F 78% 30.01 in 2.0 mi West 16.1 mph 24.2 mph N/A Thunderstorm Unknown
2:14 PM 66.2 °F - 60.8 °F 83% 30.02 in 4.0 mi NW 16.1 mph 27.6 mph 0.01 in Rain , Thunderstorm Light Thunderstorms and Rain
2:21 PM 64.4 °F - 59.0 °F 83% 30.01 in 4.0 mi North 19.6 mph 27.6 mph 0.02 in Rain , Thunderstorm Light Thunderstorms and Rain
2:38 PM 64.4 °F - 60.8 °F 88% 30.05 in 1.8 mi WNW 20.7 mph - 0.08 in Rain , Thunderstorm Thunderstorms and Rain
2:53 PM 64.0 °F - 61.0 °F 90% 30.03 in 1.2 mi West 13.8 mph 24.2 mph 0.25 in Rain , Thunderstorm Heavy Thunderstorms and Rain
2:56 PM 64.4 °F - 60.8 °F 88% 30.09 in 0.5 mi West 17.3 mph 26.5 mph 0.13 in Fog , Rain , Thunderstorm Heavy Thunderstorms and Rain
2:59 PM 64.4 °F - 60.8 °F 88% 30.09 in 0.2 mi WNW 23.0 mph 29.9 mph 0.31 in Fog , Rain , Thunderstorm Heavy Thunderstorms and Rain
3:13 PM 62.6 °F - 60.8 °F 94% 30.04 in 0.8 mi NNW 18.4 mph 31.1 mph 0.64 in Rain , Thunderstorm Heavy Thunderstorms and Rain
3:20 PM 62.6 °F - 60.8 °F 94% 30.04 in 2.0 mi NW 11.5 mph 25.3 mph 0.66 in Rain , Thunderstorm Thunderstorms and Rain
3:27 PM 62.6 °F - 60.8 °F 94% 30.05 in 5.0 mi WNW 5.8 mph 18.4 mph 0.67 in Rain , Thunderstorm Light Thunderstorms and Rain
3:36 PM 62.6 °F - 60.8 °F 94% 30.04 in 8.0 mi NNW 8.1 mph - 0.67 in Rain , Thunderstorm Light Rain
3:53 PM 63.0 °F - 61.0 °F 93% 29.99 in 10.0 mi Calm Calm - 0.67 in Thunderstorm Scattered Clouds
4:11 PM 64.4 °F - 60.8 °F 88% 30.00 in 10.0 mi East 6.9 mph - N/A   Partly Cloudy
4:53 PM 64.0 °F - 62.1 °F 93% 29.96 in 10.0 mi SE 3.5 mph - N/A   Clear
5:53 PM 64.9 °F - 62.1 °F 90% 29.92 in 10.0 mi ESE 3.5 mph - N/A   Clear
6:21 PM 66.2 °F - 62.6 °F 88% 29.95 in 10.0 mi Calm Calm - N/A   Partly Cloudy
6:53 PM 66.0 °F - 62.1 °F 87% 29.92 in 10.0 mi Calm Calm - N/A   Partly Cloudy
7:53 PM 64.0 °F - 62.1 °F 93% 29.94 in 5.0 mi Calm Calm - N/A   Clear
8:53 PM 64.0 °F - 60.1 °F 87% 29.94 in 10.0 mi Calm Calm - N/A   Clear
9:53 PM 62.1 °F - 60.1 °F 93% 29.95 in 9.0 mi Calm Calm - N/A   Clear
10:45 PM 60.8 °F - 59.0 °F 94% 30.01 in 2.0 mi Calm Calm - N/A   Clear
10:53 PM 61.0 °F - 59.0 °F 93% 29.95 in 5.0 mi Calm Calm - N/A   Clear
11:08 PM 60.8 °F - 59.0 °F 94% 30.00 in 2.5 mi Calm Calm - N/A   Clear
11:27 PM 62.6 °F - 59.0 °F 88% 29.99 in 6.0 mi South 3.5 mph - 0.01 in   Clear
11:53 PM 62.1 °F - 60.1 °F 93% 29.93 in 10.0 mi SSE 3.5 mph - 0.01 in   Clear